パンスターズ彗星

C/2021 P2 ( PanSTARRS )

English version
Home page
Updated on September 4, 2024

---------------------------------------------------------------------

・ プロフィール

発見日 2021年8月7日
発見光度 21.5等
発見者 Pan-STARRS 1 telescope (Haleakala)

・ 写真集

・ 軌道要素

Epoch 2024 Mar. 31.0 TT = JDT 2460400.5
T 2023 Jan. 22.96608 TT                                 Rudenko
q   5.0693606            (2000.0)            P               Q
z  +0.0002123      Peri.   76.71742     +0.64262567     -0.71886932
 +/-0.0000004      Node    32.08248     -0.73686440     -0.67465625
e   0.9989239      Incl.  150.06292     +0.20991216     -0.16752863
>From 380 observations 2021 June 19-2024 June 13, mean residual 0".5.

・ 光度変化

        m1 = 4.2 + 5 logΔ + 15.0 log r(t - 50)

---------------------------------------------------------------------

軌道要素はM.P.E.C. 2024-L140に掲載されたものです。
光度グラフはComet for Windowsで作成したものです。

---------------------------------------------------------------------

Copyright(C) Seiichi Yoshida (comet@aerith.net). All rights reserved.